Location: ???????
(55.4362°N, 38.1183°E)
Time: 01:11:13
(UTC+00:00)

Cosmos 2228 - Pass Details

Date: 17 June 2021
Orbit: 588 x 618 km, 82.5° (Epoch: 05 August)

Event Time Altitude Azimuth Distance (km) Brightness Sun altitude
Rises 19:49:18 0° 348° (NNW) 2,907 8.6 -8.4°
Reaches altitude 10° 19:51:32 10° 349° (NNW) 1,998 7.3 -8.5°
Maximum altitude 19:55:59 86° 76° (ENE) 630 3.1 -8.7°
Enters shadow 20:00:08 12° 168° (SSE) 1,882 4.9 -8.9°
